Weather Roundup
Issued by NWS Chicago, IL

Home | Current Version | Previous Version | Graphics & Text | Print | Product List | Glossary On
Versions: 1 2 3 4 5 6 7 8 9 10 11 12 13 14 15 16 17 18 19 20 21 22 23 24 25 26 27 28 29 30 31 32 33 34 35 36 37 38 39 40 41 42 43 44 45 46 47 48 49 50
000
NZUS59 KLOT 110111
HRRLOT

CHICAGO AREA WEATHER ROUNDUP
NATIONAL WEATHER SERVICE CHICAGO/ROMEOVILLE IL
700 PM CST SAT DEC 10 2016

NOTE: "FAIR" INDICATES FEW OR NO CLOUDS BELOW 12,000 FEET WITH NO
SIGNIFICANT WEATHER AND/OR OBSTRUCTIONS TO VISIBILITY.

* THESE STATIONS ARE NOT UNDER NWS QUALITY CONTROL. THEY ALSO MAY NOT
  REPORT WEATHER SUCH AS PRECIPITATION OR FOG.

ILZ005-006-012>014-019>023-110200-
NORTHEAST ILLINOIS

CITY           SKY/WX    TMP DP  RH WIND       PRES   REMARKS
OHARE          LGT SNOW  21  19  92 S5        30.37F VSB 1   WCI  15
MIDWAY         LGT SNOW  23  18  81 S7        30.39F FOG     WCI  15
AURORA         LGT SNOW  23  20  88 SE7       30.37F FOG     WCI  15
LANSING*       LGT SNOW  22  21  97 S3        30.40F
JOLIET*        LGT SNOW  24  22  93 SE3       30.39F VSB 1
WAUKEGAN       LGT SNOW  21  19  92 CALM      30.36F FOG
DUPAGE AIRPORT LGT SNOW  22  18  85 SE6       30.36F FOG     WCI  14
WHEELING       LGT SNOW  21  18  88 S5        30.39F FOG     WCI  15
KANKAKEE*      LGT SNOW  24  22  91 CALM      30.40F
MORRIS*        LGT SNOW  23  21  92 CALM      30.36F
LEWIS AIRPORT* LGT SNOW  22  22 100 SE6       30.38F WCI  14
NORTHERLY ISL    N/A     23  20  88 S7          N/A  WCI  15
$$

WIZ051-052-058>065-066-070>072-110200-
SOUTHEAST WISCONSIN

CITY           SKY/WX    TMP DP  RH WIND       PRES   REMARKS
MILWAUKEE      LGT SNOW  22  17  81 SW7       30.36F WCI  13
KENOSHA*       LGT SNOW  21  18  88 CALM      30.37F FOG
RACINE*        LGT SNOW  21  16  81 SW5       30.39F WCI  15
BURLINGTON     LGT SNOW  25  23  93 CALM      30.35F
WAUKESHA       LGT SNOW  18  16  93 S5        30.36F WCI  11
WEST BEND      LGT SNOW  19  18  93 SW3       30.34F
$$

INZ001>003-010>013-019-020-110200-
NORTHWEST INDIANA

CITY           SKY/WX    TMP DP  RH WIND       PRES   REMARKS
GARY*          LGT SNOW  25  21  86 S3        30.40F
MICHIGAN CITY* NOT AVBL
RENSSELAER*    NOT AVBL
VALPARAISO     LGT SNOW  24  19  81 S5        30.40F WCI  18
$$

LMZ740>746-110200-
SOUTHERN LAKE MICHIGAN

STATION/POSITION TIME  SKY/WX   TEMP WIND        PRES    VSBY
                                AIR  DIR/SP/G
                 (UTC)          (F)  (DEG/KT/KT) (MB)    (MI)
HARRISON CRIB    NOT AVBL
BURNHAM HARBOR   0100            23  200/  7/  8   N/A
CALUMET HARBOR   0048            22  160/  7/  9 1028.5F
BURNS HARBOR     0040            23  180/  4/  7 1029.8F
MICHIGAN CITY    NOT AVBL
$$

ABBREVIATIONS USED IN REMARKS
   TC - TEMPERATURE IN CELSIUS
  WCI - WIND CHILL INDEX
   HX - HEAT INDEX
  VSB - VISIBILITY
$$



USA.gov is the U.S. government's official web portal to all federal, state and local government web resources and services.